Regional Weather Roundup
Issued by NWS

Home | Current Version | Previous Version | Graphics & Text | Print | Product List | Glossary On
Versions: 1 2 3 4 5 6 7 8 9 10 11 12 13 14 15 16 17 18 19 20 21 22 23 24 25 26 27 28
000
ASUS45 KBOI 271110
RWRID

IDAHO REGIONAL WEATHER ROUNDUP
NATIONAL WEATHER SERVICE BOISE ID
500 AM MDT THU APR 27 2017

NOTE: "FAIR" INDICATES FEW OR NO CLOUDS BELOW 12000 FEET
WITH NO SIGNIFICANT WEATHER AND/OR OBSTRUCTIONS TO VISIBILITY

IDZ012-014-271200-
SOUTHWEST IDAHO


CITY           SKY/WX    TMP DP  RH WIND       PRES   REMARKS
BOISE          CLOUDY    39  35  86 W10       29.88R WCI  32
CALDWELL       CLOUDY    42  36  79 W10       29.91R
$$

IDZ016-017-271200-
SOUTHCENTRAL IDAHO


CITY           SKY/WX    TMP DP  RH WIND       PRES   REMARKS
BURLEY         CLEAR     36  30  79 W18G32    29.77R WCI  26
JEROME         CLEAR     36  33  89 SW23G30   29.80R WCI  24
TWIN FALLS     CLEAR     35  33  92 SW18G26   29.82R WCI  24
$$

IDZ019>023-271200-
SOUTHEAST IDAHO


CITY           SKY/WX    TMP DP  RH WIND       PRES   REMARKS
IDAHO FALLS    CLOUDY    35  34  96 S9        29.67R WCI  28
POCATELLO      LGT RAIN  37  34  89 SW21G31   29.72R WCI  26
REXBURG        CLOUDY    37  32  82 N8G18     29.62R WCI  31
$$

IDZ006-010-011-018-031-032-271200-
CENTRAL IDAHO MOUNTAINS


CITY           SKY/WX    TMP DP  RH WIND       PRES   REMARKS
MCCALL         PTCLDY    31  26  82 W5        29.81R WCI  26
HAILEY         CLEAR     36  21  55 NW3       29.72R
STANLEY          N/A     29  23  78 VRB6      29.77R WCI  23
SALMON         CLOUDY    37  28  70 W3        29.73S
CHALLIS        CLOUDY    34  29  82 CALM      29.73S
$$

IDZ002-004-006-007-026-271200-
NORTHERN IDAHO


CITY           SKY/WX    TMP DP  RH WIND       PRES   REMARKS
LEWISTON       CLOUDY    44  37  76 SW3       29.89R
LOWELL           N/A     41  39  93 CALM      29.89R
COEUR D`ALENE  PTCLDY    36  33  89 S7        29.79R WCI  30
MULLAN PASS    FOG       26  26 100 W8        29.69R VSB 1/2 WCI  18
$$




USA.gov is the U.S. government's official web portal to all federal, state and local government web resources and services.